Printer-friendly version

IAU Minor Planet Center

Minor Planet Center

MPEC 2006-V09 : 2006 VB

The following Minor Planet Electronic Circular may be linked-to from your own Web pages, but must not otherwise be redistributed electronically.

A form allowing access to any MPEC is at the bottom of this page.


Read MPEC 2006-V08 Read MPEC 2006-V10


M.P.E.C. 2006-V09                                Issued 2006 Nov. 1, 22:38 UT

     The Minor Planet Electronic Circulars contain information on unusual
         minor planets and routine data on comets.  They are published
   on behalf of Commission 20 of the International Astronomical Union by the
          Minor Planet Center, Smithsonian Astrophysical Observatory,
                          Cambridge, MA 02138, U.S.A.

             Prepared using the Tamkin Foundation Computer Network

                              MPC@CFA.HARVARD.EDU
          URL http://cfa-www.harvard.edu/iau/mpc.html  ISSN 1523-6714

                                    2006 VB

Observations:
     K06V00B* C2006 11 01.19780 02 34 32.48 +19 45 30.5          19.8 V EV009G96
     K06V00B  C2006 11 01.20623 02 34 33.38 +19 46 51.5          19.6 V EV009G96
     K06V00B  C2006 11 01.21480 02 34 34.28 +19 48 14.2          19.4 V EV009G96
     K06V00B  C2006 11 01.22330 02 34 35.18 +19 49 35.3          19.5 V EV009G96
     K06V00B  C2006 11 01.26776 02 34 39.75 +19 56 37.8          19.7 V EV009G96
     K06V00B  C2006 11 01.26815 02 34 39.75 +19 56 41.6          19.5 V EV009G96
     K06V00B  C2006 11 01.26852 02 34 39.82 +19 56 44.9          19.6 V EV009G96
     K06V00B  C2006 11 01.48483 02 35 02.78 +20 29 46.8          19.6 V EV009G96
     K06V00B  C2006 11 01.48630 02 35 02.91 +20 29 58.3          20.6 V EV009G96
     K06V00B  C2006 11 01.48777 02 35 03.08 +20 30 13.5          19.7 V EV009G96
     K06V00B  C2006 11 01.48921 02 35 03.29 +20 30 25.2          18.9 V EV009G96
     K06V00B  C2006 11 01.82639 02 36 04.23 +21 20 05.4                 EV009J95
     K06V00B  C2006 11 01.83869 02 36 05.76 +21 21 54.2                 EV009J95
     K06V00B  C2006 11 01.85106 02 36 07.23 +21 23 43.9          19.7 R EV009J95

Observer details:
G96 Mt. Lemmon Survey.  Observer R. A. Kowalski.  Measurers E. C. Beshore,
    E. J. Christensen, G. J. Garradd, A. R. Gibbs, A. D. Grauer, R. E. Hill,
    R. A. Kowalski, S. M. Larson, R. H. McNaught.  1.5-m reflector + CCD.
J95 Great Shefford.  Observer P. Birtwhistle.  0.40-m f/6.0 Schmidt-Cassegrain
    + CCD.

Orbital elements:
2006 VB                                                  Earth MOID = 0.0382 AU
Epoch 2006 Sept. 22.0 TT = JDT 2454000.5                MPC
M 356.57507              (2000.0)            P               Q
n   0.43419920     Peri.  325.00557     +0.99541168     -0.02997808
a   1.7272029      Node    37.03605     +0.07190849     +0.86087216
e   0.4240638      Incl.    8.67695     -0.06312487     +0.50793744
P   2.27           H   25.0           G   0.15           U   7
Residuals in seconds of arc
061101 G96  0.3+  0.0     061101 G96  0.3-  0.0     061101 G96  0.0   0.2-
061101 G96  0.0   0.1-    061101 G96  0.2+  0.2-    061101 J95  0.1-  0.4+
061101 G96  0.2-  0.4+    061101 G96  0.6+  0.4+    061101 J95  0.2+  0.2-
061101 G96  0.2-  0.1+    061101 G96  0.2-  1.2-    061101 J95  0.1-  0.2-
061101 G96  0.3+  0.1-    061101 G96  0.4-  0.9+

Ephemeris:
2006 VB                  a,e,i = 1.73, 0.42, 9                   q = 0.9948
Date    TT    R. A. (2000) Decl.     Delta      r     Elong.  Phase     V
2006 11 01    02 33.96   +19 14.4    0.0643   1.057   174.5     5.2    19.6
2006 11 02    02 36.39   +21 46.3    0.0685   1.060   172.5     7.0    19.8
2006 11 03    02 38.61   +23 59.9    0.0729   1.064   170.8     8.6    20.0
2006 11 04    02 40.63   +25 57.6    0.0774   1.068   169.2    10.0    20.2
2006 11 05    02 42.48   +27 41.7    0.0820   1.072   167.8    11.3    20.4
2006 11 06    02 44.18   +29 13.9    0.0868   1.076   166.6    12.3    20.6
2006 11 07    02 45.75   +30 35.8    0.0916   1.080   165.5    13.2    20.7
2006 11 08    02 47.19   +31 48.8    0.0966   1.084   164.6    14.1    20.9
2006 11 09    02 48.53   +32 53.8    0.102    1.088   163.8    14.8    21.0
2006 11 10    02 49.77   +33 52.0    0.107    1.093   163.0    15.4    21.2
2006 11 11    02 50.93   +34 44.1    0.112    1.097   162.3    15.9    21.3
2006 11 12    02 52.01   +35 30.8    0.117    1.102   161.7    16.4    21.4
2006 11 13    02 53.02   +36 12.7    0.122    1.106   161.2    16.8    21.6
2006 11 14    02 53.98   +36 50.3    0.128    1.111   160.7    17.2    21.7
2006 11 15    02 54.89   +37 24.1    0.133    1.116   160.2    17.5    21.8
2006 11 16    02 55.75   +37 54.4    0.139    1.120   159.8    17.8    21.9
2006 11 17    02 56.58   +38 21.6    0.145    1.125   159.3    18.1    22.0
2006 11 18    02 57.38   +38 46.0    0.150    1.130   158.9    18.3    22.1
2006 11 19    02 58.15   +39 07.8    0.156    1.135   158.6    18.6    22.2
2006 11 20    02 58.90   +39 27.3    0.162    1.140   158.2    18.8    22.3
2006 11 21    02 59.64   +39 44.8    0.168    1.145   157.8    19.0    22.4

Timothy B. Spahr             (C) Copyright 2006 MPC           M.P.E.C. 2006-V09

Read MPEC 2006-V08 Read MPEC 2006-V10


MPEC number:

Enter an
MPEC number in one of the following forms:
  • 1997-B01 (the full form)
  • J97B01 (the packed version of the full form)
  • B01 (the abbreviated form)

Valid HTML 4.01!